Time,TemperatureF,DewpointF,PressureIn,WindDirection,WindDirectionDegrees,WindSpeedMPH,WindSpeedGustMPH,Humidity,HourlyPrecipIn,Conditions,Clouds,dailyrainin,SoftwareType,DateUTC
2013-11-06 00:04:00,34.0,17.8,30.09,West,270,1.6,-999.0,51,-99.99,,,0.00,Acu-Link.com,2013-11-06 07:04:00,
2013-11-06 00:19:00,32.9,16.3,30.10,NNW,337,3.8,-999.0,50,-99.99,,,0.00,Acu-Link.com,2013-11-06 07:19:00,
2013-11-06 00:34:00,34.3,15.2,30.10,NNE,22,3.1,-999.0,45,-99.99,,,0.00,Acu-Link.com,2013-11-06 07:34:00,
2013-11-06 00:49:00,32.7,16.6,30.12,NE,45,2.2,-999.0,51,-99.99,,,0.00,Acu-Link.com,2013-11-06 07:49:00,
2013-11-06 01:06:00,32.0,16.8,30.12,NNE,22,1.1,-999.0,53,-99.99,,,0.00,Acu-Link.com,2013-11-06 08:06:00,
2013-11-06 01:21:00,31.1,16.4,30.11,NW,315,1.6,-999.0,54,-99.99,,,0.00,Acu-Link.com,2013-11-06 08:21:00,
2013-11-06 01:36:00,31.3,15.7,30.12,North,0,3.8,-999.0,52,-99.99,,,0.00,Acu-Link.com,2013-11-06 08:36:00,
2013-11-06 01:51:00,32.0,15.9,30.12,NE,45,3.8,-999.0,51,-99.99,,,0.00,Acu-Link.com,2013-11-06 08:51:00,
2013-11-06 02:06:00,32.2,15.7,30.12,NE,45,1.6,-999.0,50,-99.99,,,0.00,Acu-Link.com,2013-11-06 09:06:00,
2013-11-06 02:22:00,32.0,15.0,30.12,NW,315,1.6,-999.0,49,-99.99,,,0.00,Acu-Link.com,2013-11-06 09:22:00,
2013-11-06 02:37:00,31.1,15.1,30.12,WNW,292,2.7,-999.0,51,-99.99,,,0.00,Acu-Link.com,2013-11-06 09:37:00,
2013-11-06 02:52:00,30.2,16.0,30.13,West,270,1.6,-999.0,55,-99.99,,,0.00,Acu-Link.com,2013-11-06 09:52:00,
2013-11-06 03:07:00,29.7,16.7,30.13,WNW,292,2.2,-999.0,58,-99.99,,,0.00,Acu-Link.com,2013-11-06 10:07:00,
2013-11-06 03:22:00,29.3,17.2,30.14,West,270,2.2,-999.0,60,-99.99,,,0.00,Acu-Link.com,2013-11-06 10:22:00,
2013-11-06 03:38:00,29.1,17.0,30.14,NW,315,2.7,-999.0,60,-99.99,,,0.00,Acu-Link.com,2013-11-06 10:38:00,
2013-11-06 03:53:00,29.7,15.9,30.14,West,270,2.7,-999.0,56,-99.99,,,0.00,Acu-Link.com,2013-11-06 10:53:00,
2013-11-06 04:08:00,29.8,16.5,30.14,West,270,5.8,-999.0,57,-99.99,,,0.00,Acu-Link.com,2013-11-06 11:08:00,
2013-11-06 04:23:00,30.0,15.8,30.15,West,270,4.7,-999.0,55,-99.99,,,0.00,Acu-Link.com,2013-11-06 11:23:00,
2013-11-06 04:38:00,29.1,15.8,30.16,ESE,112,2.2,-999.0,57,-99.99,,,0.00,Acu-Link.com,2013-11-06 11:38:00,
2013-11-06 04:54:00,26.2,15.7,30.16,West,270,0.0,-999.0,64,-99.99,,,0.00,Acu-Link.com,2013-11-06 11:54:00,
2013-11-06 05:09:00,26.1,16.3,30.16,NE,45,0.0,-999.0,66,-99.99,,,0.00,Acu-Link.com,2013-11-06 12:09:00,
2013-11-06 05:24:00,25.9,18.8,30.17,West,270,0.0,-999.0,74,-99.99,,,0.00,Acu-Link.com,2013-11-06 12:24:00,
2013-11-06 05:39:00,25.9,20.0,30.18,WSW,247,0.0,-999.0,78,-99.99,,,0.00,Acu-Link.com,2013-11-06 12:39:00,
2013-11-06 05:55:00,24.6,17.2,30.19,WSW,247,0.0,-999.0,73,-99.99,,,0.00,Acu-Link.com,2013-11-06 12:55:00,
2013-11-06 06:10:00,24.1,17.0,30.19,WSW,247,1.6,-999.0,74,-99.99,,,0.00,Acu-Link.com,2013-11-06 13:10:00,
2013-11-06 06:25:00,24.6,16.9,30.20,West,270,0.0,-999.0,72,-99.99,,,0.00,Acu-Link.com,2013-11-06 13:25:00,
2013-11-06 06:40:00,24.8,17.1,30.21,West,270,2.2,-999.0,72,-99.99,,,0.00,Acu-Link.com,2013-11-06 13:40:00,
2013-11-06 06:55:00,25.0,16.9,30.22,West,270,0.0,-999.0,71,-99.99,,,0.00,Acu-Link.com,2013-11-06 13:55:00,
2013-11-06 07:11:00,26.8,17.3,30.23,SSW,202,0.0,-999.0,67,-99.99,,,0.00,Acu-Link.com,2013-11-06 14:11:00,
2013-11-06 07:26:00,28.9,18.7,30.23,South,180,1.6,-999.0,65,-99.99,,,0.00,Acu-Link.com,2013-11-06 14:26:00,
2013-11-06 07:41:00,30.4,19.3,30.23,WSW,247,0.0,-999.0,63,-99.99,,,0.00,Acu-Link.com,2013-11-06 14:41:00,
2013-11-06 07:56:00,34.5,18.7,30.25,WNW,292,0.0,-999.0,52,-99.99,,,0.00,Acu-Link.com,2013-11-06 14:56:00,
2013-11-06 08:11:00,33.6,17.4,30.25,West,270,2.2,-999.0,51,-99.99,,,0.00,Acu-Link.com,2013-11-06 15:11:00,
2013-11-06 08:26:00,35.2,17.1,30.26,WSW,247,0.0,-999.0,47,-99.99,,,0.00,Acu-Link.com,2013-11-06 15:26:00,
2013-11-06 08:41:00,37.9,16.9,30.26,NNE,22,1.1,-999.0,42,-99.99,,,0.00,Acu-Link.com,2013-11-06 15:41:00,
2013-11-06 08:57:00,38.5,16.9,30.26,North,0,3.8,-999.0,41,-99.99,,,0.00,Acu-Link.com,2013-11-06 15:57:00,
2013-11-06 09:12:00,39.2,16.3,30.26,West,270,2.7,-999.0,39,-99.99,,,0.00,Acu-Link.com,2013-11-06 16:12:00,
2013-11-06 09:27:00,39.9,15.2,30.27,East,90,1.6,-999.0,36,-99.99,,,0.00,Acu-Link.com,2013-11-06 16:27:00,
2013-11-06 09:42:00,40.3,15.5,30.27,West,270,5.1,-999.0,36,-99.99,,,0.00,Acu-Link.com,2013-11-06 16:42:00,
2013-11-06 09:57:00,41.7,16.1,30.26,NNW,337,1.6,-999.0,35,-99.99,,,0.00,Acu-Link.com,2013-11-06 16:57:00,
2013-11-06 10:12:00,44.2,16.3,30.26,ENE,67,5.1,-999.0,32,-99.99,,,0.00,Acu-Link.com,2013-11-06 17:12:00,
2013-11-06 10:27:00,43.9,16.0,30.26,NNE,22,1.1,-999.0,32,-99.99,,,0.00,Acu-Link.com,2013-11-06 17:27:00,
2013-11-06 10:43:00,45.1,16.3,30.26,WNW,292,1.1,-999.0,31,-99.99,,,0.00,Acu-Link.com,2013-11-06 17:43:00,
2013-11-06 10:58:00,45.0,14.6,30.26,NNW,337,1.1,-999.0,29,-99.99,,,0.00,Acu-Link.com,2013-11-06 17:58:00,
2013-11-06 11:13:00,46.2,14.9,30.25,SW,225,1.6,-999.0,28,-99.99,,,0.00,Acu-Link.com,2013-11-06 18:13:00,
2013-11-06 11:28:00,48.2,14.9,30.25,SSE,157,2.7,-999.0,26,-99.99,,,0.00,Acu-Link.com,2013-11-06 18:28:00,
2013-11-06 11:44:00,48.9,15.6,30.24,East,90,4.3,-999.0,26,-99.99,,,0.00,Acu-Link.com,2013-11-06 18:44:00,
2013-11-06 11:59:00,49.1,15.7,30.23,SSW,202,2.2,-999.0,26,-99.99,,,0.00,Acu-Link.com,2013-11-06 18:59:00,
2013-11-06 12:14:00,50.7,16.2,30.22,NNW,337,4.3,-999.0,25,-99.99,,,0.00,Acu-Link.com,2013-11-06 19:14:00,
2013-11-06 12:29:00,50.5,15.1,30.22,NE,45,3.8,-999.0,24,-99.99,,,0.00,Acu-Link.com,2013-11-06 19:29:00,
2013-11-06 12:44:00,51.4,15.9,30.20,NW,315,7.8,-999.0,24,-99.99,,,0.00,Acu-Link.com,2013-11-06 19:44:00,
2013-11-06 13:00:00,51.4,15.9,30.20,NNW,337,4.3,-999.0,24,-99.99,,,0.00,Acu-Link.com,2013-11-06 20:00:00,
2013-11-06 13:15:00,52.5,16.8,30.20,North,0,4.3,-999.0,24,-99.99,,,0.00,Acu-Link.com,2013-11-06 20:15:00,
2013-11-06 13:30:00,52.9,16.1,30.19,NNE,22,4.7,-999.0,23,-99.99,,,0.00,Acu-Link.com,2013-11-06 20:30:00,
2013-11-06 13:45:00,53.8,15.8,30.19,NW,315,3.8,-999.0,22,-99.99,,,0.00,Acu-Link.com,2013-11-06 20:45:00,
2013-11-06 14:00:00,53.4,14.5,30.19,West,270,5.8,-999.0,21,-99.99,,,0.00,Acu-Link.com,2013-11-06 21:00:00,
2013-11-06 14:16:00,54.3,15.2,30.19,West,270,4.7,-999.0,21,-99.99,,,0.00,Acu-Link.com,2013-11-06 21:16:00,
2013-11-06 14:31:00,55.4,16.1,30.19,WSW,247,5.1,-999.0,21,-99.99,,,0.00,Acu-Link.com,2013-11-06 21:31:00,
2013-11-06 14:46:00,54.9,14.6,30.18,ESE,112,2.7,-999.0,20,-99.99,,,0.00,Acu-Link.com,2013-11-06 21:46:00,
2013-11-06 15:01:00,55.2,14.9,30.18,NNW,337,4.7,-999.0,20,-99.99,,,0.00,Acu-Link.com,2013-11-06 22:01:00,
2013-11-06 15:16:00,55.2,14.9,30.18,WNW,292,6.7,-999.0,20,-99.99,,,0.00,Acu-Link.com,2013-11-06 22:16:00,
2013-11-06 15:32:00,54.9,14.6,30.18,NW,315,4.7,-999.0,20,-99.99,,,0.00,Acu-Link.com,2013-11-06 22:32:00,
2013-11-06 15:47:00,54.5,14.3,30.18,WNW,292,8.9,-999.0,20,-99.99,,,0.00,Acu-Link.com,2013-11-06 22:47:00,
2013-11-06 16:02:00,55.4,15.0,30.18,NNW,337,5.1,-999.0,20,-99.99,,,0.00,Acu-Link.com,2013-11-06 23:02:00,
2013-11-06 16:17:00,54.5,15.4,30.18,NW,315,6.7,-999.0,21,-99.99,,,0.00,Acu-Link.com,2013-11-06 23:17:00,
2013-11-06 16:33:00,53.6,16.7,30.18,WNW,292,7.4,-999.0,23,-99.99,,,0.00,Acu-Link.com,2013-11-06 23:33:00,
2013-11-06 16:48:00,52.7,16.9,30.18,WNW,292,5.1,-999.0,24,-99.99,,,0.00,Acu-Link.com,2013-11-06 23:48:00,
2013-11-06 17:03:00,51.8,18.0,30.18,WNW,292,5.8,-999.0,26,-99.99,,,0.00,Acu-Link.com,2013-11-07 00:03:00,
2013-11-06 17:18:00,51.1,17.4,30.18,West,270,10.3,-999.0,26,-99.99,,,0.00,Acu-Link.com,2013-11-07 00:18:00,
2013-11-06 17:33:00,50.5,16.9,30.18,WNW,292,6.7,-999.0,26,-99.99,,,0.00,Acu-Link.com,2013-11-07 00:33:00,
2013-11-06 17:49:00,50.0,17.4,30.19,NNW,337,5.1,-999.0,27,-99.99,,,0.00,Acu-Link.com,2013-11-07 00:49:00,
2013-11-06 18:04:00,49.8,17.2,30.19,NW,315,9.4,-999.0,27,-99.99,,,0.00,Acu-Link.com,2013-11-07 01:04:00,
2013-11-06 18:19:00,49.3,16.7,30.20,West,270,4.3,-999.0,27,-99.99,,,0.00,Acu-Link.com,2013-11-07 01:19:00,
2013-11-06 18:34:00,48.7,17.1,30.21,NNE,22,2.7,-999.0,28,-99.99,,,0.00,Acu-Link.com,2013-11-07 01:34:00,
2013-11-06 18:49:00,47.8,17.1,30.22,East,90,3.8,-999.0,29,-99.99,,,0.00,Acu-Link.com,2013-11-07 01:49:00,
2013-11-06 19:05:00,47.1,18.1,30.22,NE,45,3.8,-999.0,31,-99.99,,,0.00,Acu-Link.com,2013-11-07 02:05:00,
2013-11-06 19:20:00,46.4,19.6,30.23,ENE,67,0.0,-999.0,34,-99.99,,,0.00,Acu-Link.com,2013-11-07 02:20:00,
2013-11-06 19:35:00,46.0,17.9,30.24,WNW,292,1.6,-999.0,32,-99.99,,,0.00,Acu-Link.com,2013-11-07 02:35:00,
2013-11-06 19:50:00,45.5,18.1,30.24,NE,45,1.6,-999.0,33,-99.99,,,0.00,Acu-Link.com,2013-11-07 02:50:00,
2013-11-06 20:05:00,44.4,18.5,30.25,East,90,3.8,-999.0,35,-99.99,,,0.00,Acu-Link.com,2013-11-07 03:05:00,
2013-11-06 20:21:00,43.9,18.0,30.25,ESE,112,0.0,-999.0,35,-99.99,,,0.00,Acu-Link.com,2013-11-07 03:21:00,
2013-11-06 20:36:00,42.1,18.3,30.25,ENE,67,1.1,-999.0,38,-99.99,,,0.00,Acu-Link.com,2013-11-07 03:36:00,
2013-11-06 20:51:00,41.2,18.7,30.26,East,90,2.7,-999.0,40,-99.99,,,0.00,Acu-Link.com,2013-11-07 03:51:00,
2013-11-06 21:06:00,41.2,19.3,30.27,ESE,112,2.2,-999.0,41,-99.99,,,0.00,Acu-Link.com,2013-11-07 04:06:00,
2013-11-06 21:22:00,41.0,19.1,30.27,NNW,337,1.6,-999.0,41,-99.99,,,0.00,Acu-Link.com,2013-11-07 04:22:00,
2013-11-06 21:37:00,40.3,19.0,30.28,NNE,22,2.2,-999.0,42,-99.99,,,0.00,Acu-Link.com,2013-11-07 04:37:00,
2013-11-06 21:52:00,39.9,18.7,30.28,NE,45,0.0,-999.0,42,-99.99,,,0.00,Acu-Link.com,2013-11-07 04:52:00,
2013-11-06 22:07:00,39.7,18.5,30.28,ENE,67,3.1,-999.0,42,-99.99,,,0.00,Acu-Link.com,2013-11-07 05:07:00,
2013-11-06 22:22:00,39.6,18.9,30.28,West,270,0.0,-999.0,43,-99.99,,,0.00,Acu-Link.com,2013-11-07 05:22:00,
2013-11-06 22:38:00,38.7,18.6,30.28,West,270,1.1,-999.0,44,-99.99,,,0.00,Acu-Link.com,2013-11-07 05:38:00,
2013-11-06 22:53:00,37.9,20.5,30.28,East,90,2.7,-999.0,49,-99.99,,,0.00,Acu-Link.com,2013-11-07 05:53:00,
2013-11-06 23:08:00,37.8,19.9,30.28,ESE,112,0.0,-999.0,48,-99.99,,,0.00,Acu-Link.com,2013-11-07 06:08:00,
2013-11-06 23:23:00,38.5,19.5,30.28,NE,45,1.6,-999.0,46,-99.99,,,0.00,Acu-Link.com,2013-11-07 06:23:00,
2013-11-06 23:39:00,37.9,19.5,30.28,NNE,22,2.7,-999.0,47,-99.99,,,0.00,Acu-Link.com,2013-11-07 06:39:00,
2013-11-06 23:54:00,37.4,19.0,30.28,NW,315,2.7,-999.0,47,-99.99,,,0.00,Acu-Link.com,2013-11-07 06:54:00,